Tracking 31027 objects as of 19-Jul-2025
HD Live streaming from Space Station
objects crossing your sky now

STARLINK-31471

Track STARLINK-31471 now!
10-day predictions
STARLINK-31471 is classified as:


NORAD ID: 59568
Int'l Code: 2024-076E
Perigee: 489.2 km
Apogee: 491.1 km
Inclination: 43.0 °
Period: 94.3 minutes
Semi major axis: 6861 km
RCS: Unknown
Launch date: April 23, 2024
Source: United States (US)
Launch site: AIR FORCE EASTERN TEST RANGE (AFETR)
Your satellite tracking list
TITAN 3C TRANSTAGE DEB
Track 1 satellite(s)




NASA's NSSDC Master Catalog

Two Line Element Set (TLE):
1 59568U 24076E   25199.55196934  .00001144  00000-0  51102-4 0  9993
2 59568  43.0005 251.3487 0001370 275.4034  84.6661 15.27581691 70602
Source of the keplerian elements: AFSPC